Location: Christian Reformed Church
(43.0975°N, 93.8113°W)
Time: 04:35:42
(UTC+00:00)

Cosmos 2208 Rocket - Pass Details

Date: 13 December 2025
Orbit: 751 x 801 km, 74.0° (Epoch: 13 January)

Event Time Altitude Azimuth Distance (km) Brightness Sun altitude
Rises 12:34:19 0° 190° (S) 3,227 7.4 -11.3°
Reaches altitude 10° 12:36:43 10° 188° (S) 2,298 6.7 -10.9°
Maximum altitude 12:41:52 66° 107° (ESE) 828 4.5 -10.1°
Drops below altitude 10° 12:47:00 10° 26° (NNE) 2,288 6.5 -9.2°
Sets 12:49:22 0° 23° (NNE) 3,214 7.2 -8.8°
